Regional Weather Roundup
Issued by NWS

Home | Current Version | Previous Version | Text Only | Print | Product List | Glossary On
Versions: 1 2 3 4 5 6 7 8 9 10 11 12 13 14 15 16 17 18 19 20 21 22 23 24 25 26 27 28 29 30 31 32 33 34 35 36 37 38 39 40 41 42 43 44 45 46 47 48 49 50
000
ASUS43 KLMK 210502
RWRKY
KENTUCKY REGIONAL WEATHER ROUNDUP
NATIONAL WEATHER SERVICE LOUISVILLE KY
1200 AM EST SAT JAN 21 2017

NOTE "FAIR" INDICATES FEW OR NO CLOUDS BELOW 12,000 FEET
WITH NO SIGNIFICANT WEATHER AND/OR OBSTRUCTIONS TO VISIBILITY.

KYZ001>023-026-027-061>063-070>075-210600-
WESTERN AND SOUTH CENTRAL KENTUCKY

CITY           SKY/WX    TMP DP  RH WIND       PRES   REMARKS
PADUCAH        CLOUDY    59  52  77 VRB5      29.67R
HENDERSON      PTCLDY    54  48  82 S6        29.68S
OWENSBORO      PTCLDY    54  51  90 SE5       29.70F
HOPKINSVILLE   CLOUDY    58  53  82 S7        29.72R
BOWLING GREEN  CLOUDY    60  52  74 S10       29.74F
GLASGOW        NOT AVBL
$$

KYZ024-025-028>034-038-045-046-053-210600-
NORTH CENTRAL KENTUCKY

CITY           SKY/WX    TMP DP  RH WIND       PRES   REMARKS
LOUISVILLE/SDF CLOUDY    55  49  80 SE6       29.73S
LOUISVILLE/LOU CLOUDY    58  49  72 SE5       29.74S
FORT KNOX      CLOUDY    55  51  85 S3        29.72S
$$

KYZ035>037-039>044-047>052-055>060-089>105-210600-
NORTHEAST KENTUCKY

CITY           SKY/WX    TMP DP  RH WIND       PRES   REMARKS
LEXINGTON      PTCLDY    55  46  71 S12       29.78S
COVINGTON      CLEAR     50  46  86 S8        29.75R
FRANKFORT      MOCLDY    55  47  74 SE6       29.75S
$$

KYZ054-064>069-076>088-106>120-210600-
SOUTHEAST KENTUCKY

CITY           SKY/WX    TMP DP  RH WIND       PRES   REMARKS
JACKSON        CLEAR     55  46  71 S3        29.83R
LONDON         PTCLDY    50  45  83 CALM      29.81S
SOMERSET       NOT AVBL
MIDDLESBORO    MOCLDY    46  46 100 CALM      29.86R
MONTICELLO     PTCLDY    47  44  90 N8        29.82S
$$




USA.gov is the U.S. government's official web portal to all federal, state and local government web resources and services.